owner,sensor,date,latitude,longitude,air_temperature,qcFlag 
COMPS,ioos:station:USF.COMPS:ARP:1,2009-10-01T00:00:00Z,28.4330,-82.6670,21.61,1111122 
COMPS,ioos:station:USF.COMPS:ARP:1,2009-10-01T00:06:00Z,28.4330,-82.6670,21.23,1111122 
COMPS,ioos:station:USF.COMPS:ARP:1,2009-10-01T00:12:00Z,28.4330,-82.6670,20.74,1111122 
COMPS,ioos:station:USF.COMPS:ARP:1,2009-10-01T00:18:00Z,28.4330,-82.6670,20.53,1111122 
COMPS,ioos:station:USF.COMPS:ARP:1,2009-10-01T00:24:00Z,28.4330,-82.6670,20.29,1111122 
COMPS,ioos:station:USF.COMPS:ARP:1,2009-10-01T00:30:00Z,28.4330,-82.6670,20.12,1111122 
COMPS,ioos:station:USF.COMPS:ARP:1,2009-10-01T00:36:00Z,28.4330,-82.6670,20.06,1111122 
COMPS,ioos:station:USF.COMPS:ARP:1,2009-10-01T00:42:00Z,28.4330,-82.6670,20.18,1111122 
COMPS,ioos:station:USF.COMPS:ARP:1,2009-10-01T00:48:00Z,28.4330,-82.6670,20.29,1111122 
COMPS,ioos:station:USF.COMPS:ARP:1,2009-10-01T00:54:00Z,28.4330,-82.6670,20.06,1111122 
COMPS,ioos:station:USF.COMPS:ARP:1,2009-10-01T01:00:00Z,28.4330,-82.6670,19.8,1111122 
COMPS,ioos:station:USF.COMPS:ARP:1,2009-10-01T01:06:00Z,28.4330,-82.6670,19.7,1111122 
COMPS,ioos:station:USF.COMPS:ARP:1,2009-10-01T01:12:00Z,28.4330,-82.6670,19.38,1111122 
COMPS,ioos:station:USF.COMPS:ARP:1,2009-10-01T01:18:00Z,28.4330,-82.6670,19.25,1111122 
COMPS,ioos:station:USF.COMPS:ARP:1,2009-10-01T01:24:00Z,28.4330,-82.6670,19.0,1111122 
COMPS,ioos:station:USF.COMPS:ARP:1,2009-10-01T01:30:00Z,28.4330,-82.6670,18.8,1111122 
COMPS,ioos:station:USF.COMPS:ARP:1,2009-10-01T01:36:00Z,28.4330,-82.6670,18.8,1111122 
COMPS,ioos:station:USF.COMPS:ARP:1,2009-10-01T01:42:00Z,28.4330,-82.6670,18.8,1111122 
COMPS,ioos:station:USF.COMPS:ARP:1,2009-10-01T01:48:00Z,28.4330,-82.6670,18.89,1111122 
COMPS,ioos:station:USF.COMPS:ARP:1,2009-10-01T01:54:00Z,28.4330,-82.6670,19.01,1111122 
COMPS,ioos:station:USF.COMPS:ARP:1,2009-10-01T02:00:00Z,28.4330,-82.6670,18.95,1111122 
COMPS,ioos:station:USF.COMPS:ARP:1,2009-10-01T02:06:00Z,28.4330,-82.6670,18.96,1111122 
COMPS,ioos:station:USF.COMPS:ARP:1,2009-10-01T02:12:00Z,28.4330,-82.6670,18.9,1111122 
COMPS,ioos:station:USF.COMPS:ARP:1,2009-10-01T02:18:00Z,28.4330,-82.6670,18.92,1111122 
COMPS,ioos:station:USF.COMPS:ARP:1,2009-10-01T02:24:00Z,28.4330,-82.6670,18.82,1111122 
COMPS,ioos:station:USF.COMPS:ARP:1,2009-10-01T02:30:00Z,28.4330,-82.6670,18.75,1111122 
COMPS,ioos:station:USF.COMPS:ARP:1,2009-10-01T02:36:00Z,28.4330,-82.6670,18.72,1111122 
COMPS,ioos:station:USF.COMPS:ARP:1,2009-10-01T02:42:00Z,28.4330,-82.6670,18.62,1111122 
COMPS,ioos:station:USF.COMPS:ARP:1,2009-10-01T02:48:00Z,28.4330,-82.6670,18.67,1111122 
COMPS,ioos:station:USF.COMPS:ARP:1,2009-10-01T02:54:00Z,28.4330,-82.6670,18.8,1111122 
COMPS,ioos:station:USF.COMPS:ARP:1,2009-10-01T03:00:00Z,28.4330,-82.6670,18.64,1111122 
COMPS,ioos:station:USF.COMPS:ARP:1,2009-10-01T03:06:00Z,28.4330,-82.6670,18.72,1111122 
COMPS,ioos:station:USF.COMPS:ARP:1,2009-10-01T03:12:00Z,28.4330,-82.6670,18.79,1111122 
COMPS,ioos:station:USF.COMPS:ARP:1,2009-10-01T03:18:00Z,28.4330,-82.6670,18.79,1111122 
COMPS,ioos:station:USF.COMPS:ARP:1,2009-10-01T03:24:00Z,28.4330,-82.6670,18.83,1111122 
COMPS,ioos:station:USF.COMPS:ARP:1,2009-10-01T03:30:00Z,28.4330,-82.6670,18.86,1111122 
COMPS,ioos:station:USF.COMPS:ARP:1,2009-10-01T03:36:00Z,28.4330,-82.6670,18.94,1111122 
COMPS,ioos:station:USF.COMPS:ARP:1,2009-10-01T03:42:00Z,28.4330,-82.6670,18.94,1111122 
COMPS,ioos:station:USF.COMPS:ARP:1,2009-10-01T03:48:00Z,28.4330,-82.6670,18.94,1111122 
COMPS,ioos:station:USF.COMPS:ARP:1,2009-10-01T03:54:00Z,28.4330,-82.6670,18.98,1111122 
COMPS,ioos:station:USF.COMPS:ARP:1,2009-10-01T04:00:00Z,28.4330,-82.6670,18.82,1111122 
COMPS,ioos:station:USF.COMPS:ARP:1,2009-10-01T04:06:00Z,28.4330,-82.6670,18.8,1111122 
COMPS,ioos:station:USF.COMPS:ARP:1,2009-10-01T04:12:00Z,28.4330,-82.6670,18.8,1111122 
COMPS,ioos:station:USF.COMPS:ARP:1,2009-10-01T04:18:00Z,28.4330,-82.6670,18.8,1111122 
COMPS,ioos:station:USF.COMPS:ARP:1,2009-10-01T04:24:00Z,28.4330,-82.6670,18.69,1111122 
COMPS,ioos:station:USF.COMPS:ARP:1,2009-10-01T04:30:00Z,28.4330,-82.6670,18.66,1111122 
COMPS,ioos:station:USF.COMPS:ARP:1,2009-10-01T04:36:00Z,28.4330,-82.6670,18.73,1111122 
COMPS,ioos:station:USF.COMPS:ARP:1,2009-10-01T04:42:00Z,28.4330,-82.6670,18.8,1111122 
COMPS,ioos:station:USF.COMPS:ARP:1,2009-10-01T04:48:00Z,28.4330,-82.6670,18.69,1111122 
COMPS,ioos:station:USF.COMPS:ARP:1,2009-10-01T04:54:00Z,28.4330,-82.6670,18.51,1111122 
COMPS,ioos:station:USF.COMPS:ARP:1,2009-10-01T05:00:00Z,28.4330,-82.6670,18.13,1111122 
COMPS,ioos:station:USF.COMPS:ARP:1,2009-10-01T05:06:00Z,28.4330,-82.6670,17.85,1111122 
COMPS,ioos:station:USF.COMPS:ARP:1,2009-10-01T05:12:00Z,28.4330,-82.6670,17.68,1111122 
COMPS,ioos:station:USF.COMPS:ARP:1,2009-10-01T05:18:00Z,28.4330,-82.6670,17.53,1111122 
COMPS,ioos:station:USF.COMPS:ARP:1,2009-10-01T05:24:00Z,28.4330,-82.6670,17.41,1111122 
COMPS,ioos:station:USF.COMPS:ARP:1,2009-10-01T05:30:00Z,28.4330,-82.6670,17.31,1111122 
COMPS,ioos:station:USF.COMPS:ARP:1,2009-10-01T05:36:00Z,28.4330,-82.6670,17.3,1111122 
COMPS,ioos:station:USF.COMPS:ARP:1,2009-10-01T05:42:00Z,28.4330,-82.6670,17.3,1111122 
COMPS,ioos:station:USF.COMPS:ARP:1,2009-10-01T05:48:00Z,28.4330,-82.6670,17.2,1111122 
COMPS,ioos:station:USF.COMPS:ARP:1,2009-10-01T05:54:00Z,28.4330,-82.6670,17.13,1111122 
COMPS,ioos:station:USF.COMPS:ARP:1,2009-10-01T06:00:00Z,28.4330,-82.6670,17.03,1111122 
COMPS,ioos:station:USF.COMPS:ARP:1,2009-10-01T06:06:00Z,28.4330,-82.6670,17.0,1111122 
COMPS,ioos:station:USF.COMPS:ARP:1,2009-10-01T06:12:00Z,28.4330,-82.6670,17.09,1111122 
COMPS,ioos:station:USF.COMPS:ARP:1,2009-10-01T06:18:00Z,28.4330,-82.6670,17.02,1111122 
COMPS,ioos:station:USF.COMPS:ARP:1,2009-10-01T06:24:00Z,28.4330,-82.6670,16.91,1111122 
COMPS,ioos:station:USF.COMPS:ARP:1,2009-10-01T06:30:00Z,28.4330,-82.6670,16.94,1111122 
COMPS,ioos:station:USF.COMPS:ARP:1,2009-10-01T06:36:00Z,28.4330,-82.6670,16.98,1111122 
COMPS,ioos:station:USF.COMPS:ARP:1,2009-10-01T06:42:00Z,28.4330,-82.6670,16.94,1111122 
COMPS,ioos:station:USF.COMPS:ARP:1,2009-10-01T06:48:00Z,28.4330,-82.6670,16.91,1111122 
COMPS,ioos:station:USF.COMPS:ARP:1,2009-10-01T06:54:00Z,28.4330,-82.6670,17.01,1111122 
COMPS,ioos:station:USF.COMPS:ARP:1,2009-10-01T07:00:00Z,28.4330,-82.6670,16.82,1111122 
COMPS,ioos:station:USF.COMPS:ARP:1,2009-10-01T07:06:00Z,28.4330,-82.6670,17.1,1111122 
COMPS,ioos:station:USF.COMPS:ARP:1,2009-10-01T07:12:00Z,28.4330,-82.6670,17.16,1111122 
COMPS,ioos:station:USF.COMPS:ARP:1,2009-10-01T07:18:00Z,28.4330,-82.6670,17.13,1111122 
COMPS,ioos:station:USF.COMPS:ARP:1,2009-10-01T07:24:00Z,28.4330,-82.6670,16.91,1111122 
COMPS,ioos:station:USF.COMPS:ARP:1,2009-10-01T07:30:00Z,28.4330,-82.6670,16.72,1111122 
COMPS,ioos:station:USF.COMPS:ARP:1,2009-10-01T07:36:00Z,28.4330,-82.6670,16.49,1111122 
COMPS,ioos:station:USF.COMPS:ARP:1,2009-10-01T07:42:00Z,28.4330,-82.6670,16.54,1111122 
COMPS,ioos:station:USF.COMPS:ARP:1,2009-10-01T07:48:00Z,28.4330,-82.6670,16.45,1111122 
COMPS,ioos:station:USF.COMPS:ARP:1,2009-10-01T07:54:00Z,28.4330,-82.6670,16.72,1111122 
COMPS,ioos:station:USF.COMPS:ARP:1,2009-10-01T08:00:00Z,28.4330,-82.6670,16.72,1111122 
COMPS,ioos:station:USF.COMPS:ARP:1,2009-10-01T08:06:00Z,28.4330,-82.6670,16.97,1111122 
COMPS,ioos:station:USF.COMPS:ARP:1,2009-10-01T08:12:00Z,28.4330,-82.6670,16.76,1111122 
COMPS,ioos:station:USF.COMPS:ARP:1,2009-10-01T08:18:00Z,28.4330,-82.6670,16.48,1111122 
COMPS,ioos:station:USF.COMPS:ARP:1,2009-10-01T08:24:00Z,28.4330,-82.6670,16.22,1111122 
COMPS,ioos:station:USF.COMPS:ARP:1,2009-10-01T08:30:00Z,28.4330,-82.6670,16.27,1111122 
COMPS,ioos:station:USF.COMPS:ARP:1,2009-10-01T08:36:00Z,28.4330,-82.6670,16.81,1111122 
COMPS,ioos:station:USF.COMPS:ARP:1,2009-10-01T08:42:00Z,28.4330,-82.6670,16.39,1111122 
COMPS,ioos:station:USF.COMPS:ARP:1,2009-10-01T08:48:00Z,28.4330,-82.6670,16.09,1111122 
COMPS,ioos:station:USF.COMPS:ARP:1,2009-10-01T08:54:00Z,28.4330,-82.6670,16.2,1111122 
COMPS,ioos:station:USF.COMPS:ARP:1,2009-10-01T09:00:00Z,28.4330,-82.6670,16.34,1111122 
COMPS,ioos:station:USF.COMPS:ARP:1,2009-10-01T09:06:00Z,28.4330,-82.6670,16.11,1111122 
COMPS,ioos:station:USF.COMPS:ARP:1,2009-10-01T09:12:00Z,28.4330,-82.6670,15.9,1111122 
COMPS,ioos:station:USF.COMPS:ARP:1,2009-10-01T09:18:00Z,28.4330,-82.6670,15.91,1111122 
COMPS,ioos:station:USF.COMPS:ARP:1,2009-10-01T09:24:00Z,28.4330,-82.6670,15.89,1111122 
COMPS,ioos:station:USF.COMPS:ARP:1,2009-10-01T09:30:00Z,28.4330,-82.6670,15.84,1111122 
COMPS,ioos:station:USF.COMPS:ARP:1,2009-10-01T09:36:00Z,28.4330,-82.6670,15.8,1111122 
COMPS,ioos:station:USF.COMPS:ARP:1,2009-10-01T09:42:00Z,28.4330,-82.6670,15.79,1111122 
COMPS,ioos:station:USF.COMPS:ARP:1,2009-10-01T09:48:00Z,28.4330,-82.6670,15.8,1111122 
COMPS,ioos:station:USF.COMPS:ARP:1,2009-10-01T09:54:00Z,28.4330,-82.6670,15.88,1111122 
COMPS,ioos:station:USF.COMPS:ARP:1,2009-10-01T10:00:00Z,28.4330,-82.6670,15.81,1111122 
COMPS,ioos:station:USF.COMPS:ARP:1,2009-10-01T10:06:00Z,28.4330,-82.6670,15.78,1111122 
COMPS,ioos:station:USF.COMPS:ARP:1,2009-10-01T10:12:00Z,28.4330,-82.6670,15.64,1111122 
COMPS,ioos:station:USF.COMPS:ARP:1,2009-10-01T10:18:00Z,28.4330,-82.6670,15.52,1111122 
COMPS,ioos:station:USF.COMPS:ARP:1,2009-10-01T10:24:00Z,28.4330,-82.6670,15.38,1111122 
COMPS,ioos:station:USF.COMPS:ARP:1,2009-10-01T10:30:00Z,28.4330,-82.6670,15.2,1111122 
COMPS,ioos:station:USF.COMPS:ARP:1,2009-10-01T10:36:00Z,28.4330,-82.6670,15.25,1111122 
COMPS,ioos:station:USF.COMPS:ARP:1,2009-10-01T10:42:00Z,28.4330,-82.6670,15.25,1111122 
COMPS,ioos:station:USF.COMPS:ARP:1,2009-10-01T10:48:00Z,28.4330,-82.6670,15.29,1111122 
COMPS,ioos:station:USF.COMPS:ARP:1,2009-10-01T10:54:00Z,28.4330,-82.6670,15.31,1111122 
COMPS,ioos:station:USF.COMPS:ARP:1,2009-10-01T11:00:00Z,28.4330,-82.6670,15.38,1111122 
COMPS,ioos:station:USF.COMPS:ARP:1,2009-10-01T11:06:00Z,28.4330,-82.6670,15.45,1111122 
COMPS,ioos:station:USF.COMPS:ARP:1,2009-10-01T11:12:00Z,28.4330,-82.6670,15.65,1111122 
COMPS,ioos:station:USF.COMPS:ARP:1,2009-10-01T11:18:00Z,28.4330,-82.6670,15.66,1111122 
COMPS,ioos:station:USF.COMPS:ARP:1,2009-10-01T11:24:00Z,28.4330,-82.6670,15.78,1111122 
COMPS,ioos:station:USF.COMPS:ARP:1,2009-10-01T11:30:00Z,28.4330,-82.6670,15.82,1111122 
COMPS,ioos:station:USF.COMPS:ARP:1,2009-10-01T11:36:00Z,28.4330,-82.6670,15.72,1111122 
COMPS,ioos:station:USF.COMPS:ARP:1,2009-10-01T11:42:00Z,28.4330,-82.6670,15.79,1111122 
COMPS,ioos:station:USF.COMPS:ARP:1,2009-10-01T11:48:00Z,28.4330,-82.6670,16.06,1111122 
COMPS,ioos:station:USF.COMPS:ARP:1,2009-10-01T11:54:00Z,28.4330,-82.6670,16.26,1111122 
COMPS,ioos:station:USF.COMPS:ARP:1,2009-10-01T12:00:00Z,28.4330,-82.6670,16.26,1111122 
COMPS,ioos:station:USF.COMPS:ARP:1,2009-10-01T12:06:00Z,28.4330,-82.6670,16.64,1111122 
COMPS,ioos:station:USF.COMPS:ARP:1,2009-10-01T12:12:00Z,28.4330,-82.6670,17.04,1111122 
COMPS,ioos:station:USF.COMPS:ARP:1,2009-10-01T12:18:00Z,28.4330,-82.6670,17.26,1111122 
COMPS,ioos:station:USF.COMPS:ARP:1,2009-10-01T12:24:00Z,28.4330,-82.6670,17.66,1111122 
COMPS,ioos:station:USF.COMPS:ARP:1,2009-10-01T12:30:00Z,28.4330,-82.6670,18.03,1111122 
COMPS,ioos:station:USF.COMPS:ARP:1,2009-10-01T12:36:00Z,28.4330,-82.6670,18.21,1111122 
COMPS,ioos:station:USF.COMPS:ARP:1,2009-10-01T12:42:00Z,28.4330,-82.6670,18.6,1111122 
COMPS,ioos:station:USF.COMPS:ARP:1,2009-10-01T12:48:00Z,28.4330,-82.6670,18.83,1111122 
COMPS,ioos:station:USF.COMPS:ARP:1,2009-10-01T12:54:00Z,28.4330,-82.6670,19.23,1111122 
COMPS,ioos:station:USF.COMPS:ARP:1,2009-10-01T13:00:00Z,28.4330,-82.6670,19.47,1111122 
COMPS,ioos:station:USF.COMPS:ARP:1,2009-10-01T13:06:00Z,28.4330,-82.6670,19.85,1111122 
COMPS,ioos:station:USF.COMPS:ARP:1,2009-10-01T13:12:00Z,28.4330,-82.6670,20.22,1111122 
COMPS,ioos:station:USF.COMPS:ARP:1,2009-10-01T13:18:00Z,28.4330,-82.6670,20.53,1111122 
COMPS,ioos:station:USF.COMPS:ARP:1,2009-10-01T13:24:00Z,28.4330,-82.6670,20.88,1111122 
COMPS,ioos:station:USF.COMPS:ARP:1,2009-10-01T13:30:00Z,28.4330,-82.6670,21.28,1111122 
COMPS,ioos:station:USF.COMPS:ARP:1,2009-10-01T13:36:00Z,28.4330,-82.6670,21.66,1111122 
COMPS,ioos:station:USF.COMPS:ARP:1,2009-10-01T13:42:00Z,28.4330,-82.6670,21.78,1111122 
COMPS,ioos:station:USF.COMPS:ARP:1,2009-10-01T13:48:00Z,28.4330,-82.6670,22.09,1111122 
COMPS,ioos:station:USF.COMPS:ARP:1,2009-10-01T13:54:00Z,28.4330,-82.6670,22.43,1111122 
COMPS,ioos:station:USF.COMPS:ARP:1,2009-10-01T14:00:00Z,28.4330,-82.6670,22.7,1111122 
COMPS,ioos:station:USF.COMPS:ARP:1,2009-10-01T14:06:00Z,28.4330,-82.6670,22.93,1111122 
COMPS,ioos:station:USF.COMPS:ARP:1,2009-10-01T14:12:00Z,28.4330,-82.6670,23.19,1111122 
COMPS,ioos:station:USF.COMPS:ARP:1,2009-10-01T14:18:00Z,28.4330,-82.6670,23.46,1111122 
COMPS,ioos:station:USF.COMPS:ARP:1,2009-10-01T14:24:00Z,28.4330,-82.6670,23.59,1111122 
COMPS,ioos:station:USF.COMPS:ARP:1,2009-10-01T14:30:00Z,28.4330,-82.6670,23.85,1111122 
COMPS,ioos:station:USF.COMPS:ARP:1,2009-10-01T14:36:00Z,28.4330,-82.6670,24.03,1111122 
COMPS,ioos:station:USF.COMPS:ARP:1,2009-10-01T14:42:00Z,28.4330,-82.6670,24.48,1111122 
COMPS,ioos:station:USF.COMPS:ARP:1,2009-10-01T14:48:00Z,28.4330,-82.6670,24.24,1111122 
COMPS,ioos:station:USF.COMPS:ARP:1,2009-10-01T14:54:00Z,28.4330,-82.6670,24.34,1111122 
COMPS,ioos:station:USF.COMPS:ARP:1,2009-10-01T15:00:00Z,28.4330,-82.6670,24.42,1111122 
COMPS,ioos:station:USF.COMPS:ARP:1,2009-10-01T15:06:00Z,28.4330,-82.6670,24.61,1111122 
COMPS,ioos:station:USF.COMPS:ARP:1,2009-10-01T15:12:00Z,28.4330,-82.6670,24.51,1111122 
COMPS,ioos:station:USF.COMPS:ARP:1,2009-10-01T15:18:00Z,28.4330,-82.6670,24.56,1111122 
COMPS,ioos:station:USF.COMPS:ARP:1,2009-10-01T15:24:00Z,28.4330,-82.6670,24.47,1111122 
COMPS,ioos:station:USF.COMPS:ARP:1,2009-10-01T15:30:00Z,28.4330,-82.6670,24.32,1111122 
COMPS,ioos:station:USF.COMPS:ARP:1,2009-10-01T15:36:00Z,28.4330,-82.6670,24.61,1111122 
COMPS,ioos:station:USF.COMPS:ARP:1,2009-10-01T15:42:00Z,28.4330,-82.6670,24.63,1111122 
COMPS,ioos:station:USF.COMPS:ARP:1,2009-10-01T15:48:00Z,28.4330,-82.6670,24.77,1111122 
COMPS,ioos:station:USF.COMPS:ARP:1,2009-10-01T15:54:00Z,28.4330,-82.6670,25.04,1111122 
COMPS,ioos:station:USF.COMPS:ARP:1,2009-10-01T16:00:00Z,28.4330,-82.6670,24.54,1111122 
COMPS,ioos:station:USF.COMPS:ARP:1,2009-10-01T16:06:00Z,28.4330,-82.6670,23.97,1111122 
COMPS,ioos:station:USF.COMPS:ARP:1,2009-10-01T16:12:00Z,28.4330,-82.6670,24.03,1111122 
COMPS,ioos:station:USF.COMPS:ARP:1,2009-10-01T16:18:00Z,28.4330,-82.6670,23.92,1111122 
COMPS,ioos:station:USF.COMPS:ARP:1,2009-10-01T16:24:00Z,28.4330,-82.6670,23.89,1111122 
COMPS,ioos:station:USF.COMPS:ARP:1,2009-10-01T16:30:00Z,28.4330,-82.6670,23.88,1111122 
COMPS,ioos:station:USF.COMPS:ARP:1,2009-10-01T16:36:00Z,28.4330,-82.6670,23.76,1111122 
COMPS,ioos:station:USF.COMPS:ARP:1,2009-10-01T16:42:00Z,28.4330,-82.6670,23.92,1111122 
COMPS,ioos:station:USF.COMPS:ARP:1,2009-10-01T16:48:00Z,28.4330,-82.6670,23.94,1111122 
COMPS,ioos:station:USF.COMPS:ARP:1,2009-10-01T16:54:00Z,28.4330,-82.6670,23.95,1111122 
COMPS,ioos:station:USF.COMPS:ARP:1,2009-10-01T17:00:00Z,28.4330,-82.6670,23.96,1111122 
COMPS,ioos:station:USF.COMPS:ARP:1,2009-10-01T17:06:00Z,28.4330,-82.6670,23.98,1111122 
COMPS,ioos:station:USF.COMPS:ARP:1,2009-10-01T17:12:00Z,28.4330,-82.6670,23.89,1111122 
COMPS,ioos:station:USF.COMPS:ARP:1,2009-10-01T17:18:00Z,28.4330,-82.6670,24.05,1111122 
COMPS,ioos:station:USF.COMPS:ARP:1,2009-10-01T17:24:00Z,28.4330,-82.6670,24.2,1111122 
COMPS,ioos:station:USF.COMPS:ARP:1,2009-10-01T17:30:00Z,28.4330,-82.6670,24.44,1111122 
COMPS,ioos:station:USF.COMPS:ARP:1,2009-10-01T17:36:00Z,28.4330,-82.6670,24.48,1111122 
COMPS,ioos:station:USF.COMPS:ARP:1,2009-10-01T17:42:00Z,28.4330,-82.6670,24.33,1111122 
COMPS,ioos:station:USF.COMPS:ARP:1,2009-10-01T17:48:00Z,28.4330,-82.6670,24.61,1111122 
COMPS,ioos:station:USF.COMPS:ARP:1,2009-10-01T17:54:00Z,28.4330,-82.6670,24.87,1111122 
COMPS,ioos:station:USF.COMPS:ARP:1,2009-10-01T18:00:00Z,28.4330,-82.6670,24.82,1111122 
COMPS,ioos:station:USF.COMPS:ARP:1,2009-10-01T18:06:00Z,28.4330,-82.6670,24.77,1111122 
COMPS,ioos:station:USF.COMPS:ARP:1,2009-10-01T18:12:00Z,28.4330,-82.6670,24.56,1111122 
COMPS,ioos:station:USF.COMPS:ARP:1,2009-10-01T18:18:00Z,28.4330,-82.6670,24.74,1111122 
COMPS,ioos:station:USF.COMPS:ARP:1,2009-10-01T18:24:00Z,28.4330,-82.6670,24.53,1111122 
COMPS,ioos:station:USF.COMPS:ARP:1,2009-10-01T18:30:00Z,28.4330,-82.6670,24.83,1111122 
COMPS,ioos:station:USF.COMPS:ARP:1,2009-10-01T18:36:00Z,28.4330,-82.6670,24.87,1111122 
COMPS,ioos:station:USF.COMPS:ARP:1,2009-10-01T18:42:00Z,28.4330,-82.6670,25.0,1111122 
COMPS,ioos:station:USF.COMPS:ARP:1,2009-10-01T18:48:00Z,28.4330,-82.6670,25.02,1111122 
COMPS,ioos:station:USF.COMPS:ARP:1,2009-10-01T18:54:00Z,28.4330,-82.6670,25.08,1111122 
COMPS,ioos:station:USF.COMPS:ARP:1,2009-10-01T19:00:00Z,28.4330,-82.6670,25.26,1111122 
COMPS,ioos:station:USF.COMPS:ARP:1,2009-10-01T19:06:00Z,28.4330,-82.6670,25.15,1111122 
COMPS,ioos:station:USF.COMPS:ARP:1,2009-10-01T19:12:00Z,28.4330,-82.6670,25.26,1111122 
COMPS,ioos:station:USF.COMPS:ARP:1,2009-10-01T19:18:00Z,28.4330,-82.6670,25.15,1111122 
COMPS,ioos:station:USF.COMPS:ARP:1,2009-10-01T19:24:00Z,28.4330,-82.6670,25.04,1111122 
COMPS,ioos:station:USF.COMPS:ARP:1,2009-10-01T19:30:00Z,28.4330,-82.6670,25.18,1111122 
COMPS,ioos:station:USF.COMPS:ARP:1,2009-10-01T19:36:00Z,28.4330,-82.6670,25.21,1111122 
COMPS,ioos:station:USF.COMPS:ARP:1,2009-10-01T19:42:00Z,28.4330,-82.6670,25.47,1111122 
COMPS,ioos:station:USF.COMPS:ARP:1,2009-10-01T19:48:00Z,28.4330,-82.6670,25.54,1111122 
COMPS,ioos:station:USF.COMPS:ARP:1,2009-10-01T19:54:00Z,28.4330,-82.6670,25.42,1111122 
COMPS,ioos:station:USF.COMPS:ARP:1,2009-10-01T20:00:00Z,28.4330,-82.6670,25.44,1111122 
COMPS,ioos:station:USF.COMPS:ARP:1,2009-10-01T20:06:00Z,28.4330,-82.6670,25.63,1111122 
COMPS,ioos:station:USF.COMPS:ARP:1,2009-10-01T20:12:00Z,28.4330,-82.6670,25.58,1111122 
COMPS,ioos:station:USF.COMPS:ARP:1,2009-10-01T20:18:00Z,28.4330,-82.6670,25.74,1111122 
COMPS,ioos:station:USF.COMPS:ARP:1,2009-10-01T20:24:00Z,28.4330,-82.6670,25.81,1111122 
COMPS,ioos:station:USF.COMPS:ARP:1,2009-10-01T20:30:00Z,28.4330,-82.6670,25.73,1111122 
COMPS,ioos:station:USF.COMPS:ARP:1,2009-10-01T20:36:00Z,28.4330,-82.6670,25.68,1111122 
COMPS,ioos:station:USF.COMPS:ARP:1,2009-10-01T20:42:00Z,28.4330,-82.6670,25.49,1111122 
COMPS,ioos:station:USF.COMPS:ARP:1,2009-10-01T20:48:00Z,28.4330,-82.6670,25.5,1111122 
COMPS,ioos:station:USF.COMPS:ARP:1,2009-10-01T20:54:00Z,28.4330,-82.6670,25.68,1111122 
COMPS,ioos:station:USF.COMPS:ARP:1,2009-10-01T21:00:00Z,28.4330,-82.6670,25.64,1111122 
COMPS,ioos:station:USF.COMPS:ARP:1,2009-10-01T21:06:00Z,28.4330,-82.6670,25.64,1111122 
COMPS,ioos:station:USF.COMPS:ARP:1,2009-10-01T21:12:00Z,28.4330,-82.6670,26.03,1111122 
COMPS,ioos:station:USF.COMPS:ARP:1,2009-10-01T21:18:00Z,28.4330,-82.6670,25.74,1111122 
COMPS,ioos:station:USF.COMPS:ARP:1,2009-10-01T21:24:00Z,28.4330,-82.6670,26.06,1111122 
COMPS,ioos:station:USF.COMPS:ARP:1,2009-10-01T21:30:00Z,28.4330,-82.6670,25.95,1111122 
COMPS,ioos:station:USF.COMPS:ARP:1,2009-10-01T21:36:00Z,28.4330,-82.6670,25.76,1111122 
COMPS,ioos:station:USF.COMPS:ARP:1,2009-10-01T21:42:00Z,28.4330,-82.6670,25.78,1111122 
COMPS,ioos:station:USF.COMPS:ARP:1,2009-10-01T21:48:00Z,28.4330,-82.6670,25.77,1111122 
COMPS,ioos:station:USF.COMPS:ARP:1,2009-10-01T21:54:00Z,28.4330,-82.6670,25.83,1111122 
COMPS,ioos:station:USF.COMPS:ARP:1,2009-10-01T22:00:00Z,28.4330,-82.6670,25.86,1111122 
COMPS,ioos:station:USF.COMPS:ARP:1,2009-10-01T22:06:00Z,28.4330,-82.6670,25.85,1111122 
COMPS,ioos:station:USF.COMPS:ARP:1,2009-10-01T22:12:00Z,28.4330,-82.6670,25.8,1111122 
COMPS,ioos:station:USF.COMPS:ARP:1,2009-10-01T22:18:00Z,28.4330,-82.6670,25.81,1111122 
COMPS,ioos:station:USF.COMPS:ARP:1,2009-10-01T22:24:00Z,28.4330,-82.6670,25.86,1111122 
COMPS,ioos:station:USF.COMPS:ARP:1,2009-10-01T22:30:00Z,28.4330,-82.6670,25.62,1111122 
COMPS,ioos:station:USF.COMPS:ARP:1,2009-10-01T22:36:00Z,28.4330,-82.6670,25.81,1111122 
COMPS,ioos:station:USF.COMPS:ARP:1,2009-10-01T22:42:00Z,28.4330,-82.6670,25.79,1111122 
COMPS,ioos:station:USF.COMPS:ARP:1,2009-10-01T22:48:00Z,28.4330,-82.6670,25.65,1111122 
COMPS,ioos:station:USF.COMPS:ARP:1,2009-10-01T22:54:00Z,28.4330,-82.6670,25.59,1111122 
COMPS,ioos:station:USF.COMPS:ARP:1,2009-10-01T23:00:00Z,28.4330,-82.6670,25.4,1111122 
COMPS,ioos:station:USF.COMPS:ARP:1,2009-10-01T23:06:00Z,28.4330,-82.6670,25.22,1111122 
COMPS,ioos:station:USF.COMPS:ARP:1,2009-10-01T23:12:00Z,28.4330,-82.6670,24.92,1111122 
COMPS,ioos:station:USF.COMPS:ARP:1,2009-10-01T23:18:00Z,28.4330,-82.6670,24.47,1111122 
COMPS,ioos:station:USF.COMPS:ARP:1,2009-10-01T23:24:00Z,28.4330,-82.6670,24.25,1111122 
COMPS,ioos:station:USF.COMPS:ARP:1,2009-10-01T23:30:00Z,28.4330,-82.6670,24.15,1111122 
COMPS,ioos:station:USF.COMPS:ARP:1,2009-10-01T23:36:00Z,28.4330,-82.6670,23.94,1111122 
COMPS,ioos:station:USF.COMPS:ARP:1,2009-10-01T23:42:00Z,28.4330,-82.6670,23.8,1111122 
COMPS,ioos:station:USF.COMPS:ARP:1,2009-10-01T23:48:00Z,28.4330,-82.6670,23.57,1111122 
COMPS,ioos:station:USF.COMPS:ARP:1,2009-10-01T23:54:00Z,28.4330,-82.6670,23.45,1111122 
COMPS,ioos:station:USF.COMPS:ARP:1,2009-10-02T00:00:00Z,28.4330,-82.6670,23.46,1111122 
COMPS,ioos:station:USF.COMPS:ARP:1,2009-10-02T00:06:00Z,28.4330,-82.6670,23.43,1111122 
COMPS,ioos:station:USF.COMPS:ARP:1,2009-10-02T00:12:00Z,28.4330,-82.6670,23.37,1111122 
COMPS,ioos:station:USF.COMPS:ARP:1,2009-10-02T00:18:00Z,28.4330,-82.6670,23.37,1111122 
COMPS,ioos:station:USF.COMPS:ARP:1,2009-10-02T00:24:00Z,28.4330,-82.6670,23.37,1111122 
COMPS,ioos:station:USF.COMPS:ARP:1,2009-10-02T00:30:00Z,28.4330,-82.6670,23.28,1111122 
COMPS,ioos:station:USF.COMPS:ARP:1,2009-10-02T00:36:00Z,28.4330,-82.6670,23.14,1111122 
COMPS,ioos:station:USF.COMPS:ARP:1,2009-10-02T00:42:00Z,28.4330,-82.6670,23.26,1111122 
COMPS,ioos:station:USF.COMPS:ARP:1,2009-10-02T00:48:00Z,28.4330,-82.6670,23.36,1111122 
COMPS,ioos:station:USF.COMPS:ARP:1,2009-10-02T00:54:00Z,28.4330,-82.6670,23.09,1111122 
COMPS,ioos:station:USF.COMPS:ARP:1,2009-10-02T01:00:00Z,28.4330,-82.6670,22.47,1111122 
COMPS,ioos:station:USF.COMPS:ARP:1,2009-10-02T01:06:00Z,28.4330,-82.6670,22.3,1111122 
COMPS,ioos:station:USF.COMPS:ARP:1,2009-10-02T01:12:00Z,28.4330,-82.6670,22.34,1111122 
COMPS,ioos:station:USF.COMPS:ARP:1,2009-10-02T01:18:00Z,28.4330,-82.6670,21.96,1111122 
COMPS,ioos:station:USF.COMPS:ARP:1,2009-10-02T01:24:00Z,28.4330,-82.6670,21.68,1111122 
COMPS,ioos:station:USF.COMPS:ARP:1,2009-10-02T01:30:00Z,28.4330,-82.6670,21.47,1111122 
COMPS,ioos:station:USF.COMPS:ARP:1,2009-10-02T01:36:00Z,28.4330,-82.6670,21.33,1111122 
COMPS,ioos:station:USF.COMPS:ARP:1,2009-10-02T01:42:00Z,28.4330,-82.6670,21.04,1111122 
COMPS,ioos:station:USF.COMPS:ARP:1,2009-10-02T01:48:00Z,28.4330,-82.6670,20.82,1111122 
COMPS,ioos:station:USF.COMPS:ARP:1,2009-10-02T01:54:00Z,28.4330,-82.6670,20.7,1111122 
COMPS,ioos:station:USF.COMPS:ARP:1,2009-10-02T02:00:00Z,28.4330,-82.6670,20.4,1111122 
COMPS,ioos:station:USF.COMPS:ARP:1,2009-10-02T02:06:00Z,28.4330,-82.6670,20.23,1111122 
COMPS,ioos:station:USF.COMPS:ARP:1,2009-10-02T02:12:00Z,28.4330,-82.6670,20.08,1111122 
COMPS,ioos:station:USF.COMPS:ARP:1,2009-10-02T02:18:00Z,28.4330,-82.6670,20.06,1111122 
COMPS,ioos:station:USF.COMPS:ARP:1,2009-10-02T02:24:00Z,28.4330,-82.6670,19.92,1111122 
COMPS,ioos:station:USF.COMPS:ARP:1,2009-10-02T02:30:00Z,28.4330,-82.6670,19.77,1111122 
COMPS,ioos:station:USF.COMPS:ARP:1,2009-10-02T02:36:00Z,28.4330,-82.6670,19.6,1111122 
COMPS,ioos:station:USF.COMPS:ARP:1,2009-10-02T02:42:00Z,28.4330,-82.6670,19.47,1111122 
COMPS,ioos:station:USF.COMPS:ARP:1,2009-10-02T02:48:00Z,28.4330,-82.6670,19.47,1111122 
COMPS,ioos:station:USF.COMPS:ARP:1,2009-10-02T02:54:00Z,28.4330,-82.6670,19.55,1111122 
COMPS,ioos:station:USF.COMPS:ARP:1,2009-10-02T03:00:00Z,28.4330,-82.6670,19.6,1111122 
COMPS,ioos:station:USF.COMPS:ARP:1,2009-10-02T03:06:00Z,28.4330,-82.6670,19.49,1111122 